Погода в Дашогузе

Поиск расширенной информации на нашем сайте:

Полезная информация:

Новости сайта



02.01.2020
Опубликован Долгосрочный прогноз погоды по городам России и ближнего зарубежья на январь 2020 года.
Карты: Прогноз на январь и февраль 2020 года, Сравнение прогнозируемой аномалии приземной температуры воздуха на январь 2020 года по разным моделям.




Погода в Дашогузе - сегодня

Время (UTC), дата Ветер
(°,м/с) 
Видим.   Явления Облачность Т
(°С)
Тd
(°С)
f(%) Тe
(°С)
Pmin
(гПа)
dP
(гПа)
Po
(мм)
O2
(г/м3)
Тmin Tmax R s Состояние
почвы
21 15.01.22 180 (Ю) 4000 м  дымка  10/10 120 м 
[St]
+1 +0.7 98 -1  1001.1  -0.7  743  298           
00 16.01.22 230 (ЮЗ) 10 км    8/8 660 м 
[Sc]
+2.8 +2.3 97 -1  1003.3  2.2  745  297           
03 16.01.22 270 (З) 10 км    10/10 300 м 
[St]
+2.9 +2.3 96 -1  1008  4.7  748  298  -0.8        замёрзшая 
06 16.01.22 300 (СЗ) 10 км    8/8 600 м средняя 
[Sc|Ac trans]
+2.8 +0.4 84 1013.4  5.3  752  300  -0.8         
09 16.01.22 310 (СЗ) 10 км    8/0 средняя 
[Ac trans]
+4 -0.3 74 +1  1014.4  753  299           
12 16.01.22 350 (С) 10 км    8/0 средняя 
[Ac trans]
+4.2 -1.6 66 +2  1015.9  1.5  754  299           
15 16.01.22 050 (СВ) 10 км    8/0 верхняя 
[Ci fib]
+0.5 -1.8 85 -1  1017.7  1.6  755  304    +4.5       
18 16.01.22 030 (СВ) 10 км    8/0 верхняя 
[Ci fib]
-1.4 -2.9 89 -2  1018.2  0.5  756  306    +4.5       
21 16.01.22 040 (СВ) 10 км    8/0 верхняя 
[Ci fib]
-1.7 -2.8 92 -3  1019.2  756  307           
00 17.01.22 040 (СВ) 10 км    9/0 средняя 
[Ac trans]
-1.8 -2.6 94 -4  1019.4  0.2  757  307           
03 17.01.22 090 (В) 10 км    9/0 средняя 
[Ac trans]
-2.2 -2.8 96 -4  1019.9  0.5  757  308  -2.9        замёрзшая 
06 17.01.22 050 (СВ) 10 км    9/0 средняя 
[Ac trans]
+0.2 -2.2 84 -2  1021.8  1.9  758  306  -2.9         
09 17.01.22 080 (В) 10 км    9/0 средняя 
[Ac trans]
+1.1 -2.7 76 1021.8  0.1  758  305           
12 17.01.22 080 (В) 10 км    9/0 средняя 
[Ac trans]
+2.1 -2.9 69 1022  0.2  759  304           
15 17.01.22 010 (С) 10 км    10/0 средняя 
[Ac As]
+0.5 -3.5 75 -1  1023.1  1.1  759  306    +2.4       
18 17.01.22 010 (С) 10 км    10/0 средняя 
[Ac As]
-0.1 -3.2 80 -3  1023.5  0.3  760  307    +2.4       
21 17.01.22 050 (СВ) 10 км    10/0 средняя 
[Ac As]
-0.6 -3 84 -2  1023.5  -0.1  760  307           
00 18.01.22 060 (СВ) 10 км    10/0 средняя 
[Ac As]
-0.9 -3.1 85 -3  1021.9  -1.6  758  307           
03 18.01.22 060 (СВ) 10 км    10/10 600 м 
[Ns]
-0.7 -2.9 85 -3  1020.9  -1  758  306  -1.4        замёрзшая 
06 18.01.22 040 (СВ) 4000 м  слаб. снег  10/10 540 м 
[Ns]
-0.9 -2.2 91 -5  1020.7  -0.1  758  307  -1.4         
09 18.01.22 050 (СВ) 2000 м  слаб. дождь со снегом  10/10 210 м 
[Ns]
+0.2 -0.9 92 -3  1017.5  -3.2  755  304           
12 18.01.22 050 (СВ) 2000 м  слаб. дождь со снегом  10/10 210 м 
[Ns]
+0.6 +0.1 96 -3  1016.1  -1.3  754  303           
15 18.01.22 030 (СВ) 2000 м  слаб. снег  10/10 200 м 
[Ns]
-0.1 -0.4 98 -4  1016.7  0.5  755  304    +0.7     
18 18.01.22 030 (СВ) 2000 м  слаб. снег  10/10 200 м 
[Ns]
-1.1 -1.5 97 -4  1016.9  0.2  755  306    +0.7     
21 18.01.22 020 (С) 4000 м  слаб. снег  10/10 200 м верхняя 
[Sc|Cc]
-1.3 -1.5 99 -5  1018.1  1.2  756  306           
Время (UTC), дата Ветер
(°,м/с) 
Видим.   Явления Облачность Т
(°С)
Тd
(°С)
f(%) Тe
(°С)
Pmin
(гПа)
dP
(гПа)
Po
(мм)
O2
(г/м3)
Тmin Tmax R s Состояние
почвы

Для получения пояснительной информации подведите курсор к названию столбца.

ПОГОДА в Дашогузе - архив

Всё, что Вы хотите узнать о погоде в Дашогузе - удобно и подробно!

Выберите нужную дату (начиная с 1 января 2019* года) и нажмите кнопку "Найти".
Будут отображены архивные сводки погоды по пункту Дашогуз, начиная с указанной даты.


Отображать данные в формате CSV (для использования в таблицах Excel)


Внимание! Наш архив погоды предназначен исключительно для личного некоммерческого использования в познавательных целях. Если Вам необходимы официальные справки о состоянии погоды (для производственных, юридических, коммерческих и т.п. целей), обращайтесь в органы Росгидромета.

*Примечание: данная дата относится к архиву по метеостанциям СССР (Россия, СНГ, Балтия).
Архив по метеостанциям Зарубежной Европы и Азии (кроме Китая) хранится 10 дней, по другим регионам земного шара (Китай, Африка, Америка, Австралия, Океания) - 1 день.

Дашогуз - район местоположения метеостанции


Название, широта, долгота, высота метеостанции:
Дашогуз (Ташауз) 41.8°ш. 59.8°д. 82 м над ур. моря [Туркменистан]

Дополнительная информация

В oтличие oт бoльшинства пoгoдных сайтoв мы публикуем пoдрoбную метеoинфoрмацию в детальнoм прoфессиoнальнoм фoрмате.

Характеристики температуры и влажнoсти вoздуха измеряются на высoте 2 м в тени вдали oт зданий и деревьев.
Скoрoсть ветра измеряется на высoте 10 м (на урoвне рoста челoвека скoрoсть ветра ниже в 1.5-2 раза). Если метеoстанция нахoдится в гoрoде или в лесу, тo скoрoсть ветра занижена на 2-4 м/с пo сравнению с oткрытым местoм. Скoрoсть ветра над акватoриями крупных рек и oзёр, а также на вершинах хoлмoв на 2-5 м/с выше, чем в oбычных услoвиях.
Атмoсфернoе давление в разных тoчках местнoсти мoжет значительнo oтличаться oт давления на метеoстанции, в зависимoсти oт услoвий рельефа (при пoдъёме на 10 м давление пoнижается примернo на 1 мм рт.ст.).